THORAD DELTA 1 DEB, 18539

Orbit data source: Space-Track

THORAD DELTA 1 DEB, 18539 is space debris in SSO originally from a launch on Fri, 15 Nov 1974 UTC launched from the Air Force Western Test Range (AFWTR). Debris objects in space refer to the collection of defunct objects orbiting the Earth. Examples of debris include non-operational satellites, rocket bodies, and fragments generated from explosions, collisions, or faulty payload assembly.

Loading next visibility...
Identifier
18539, 1974-089EZ
Orbit
SSO
Country
Flag of USUS
Related business
Manufacturer
Unknown
Mission
Spacecraft
Bus & Motor
Unknown
Mass
Unknown
Launch date (UTC)
1974-11-15 (52 years ago)
Launch vehicle
Unknown
Launch site
Air Force Western Test Range (AFWTR)
Object type
Payload
Rocket body
Debris
Shape & HBR
Unknown shape, 0.1 m
Radar Cross Section
Medium (>0.1 m² and <1 m²)

Expand to show TLE details & history
Last TLE update: 16 hours ago

TLE from 16 hours ago
0 THORAD DELTA 1 DEB
1 18539U 74089EZ  26208.22025441  .00000250  00000-0  18227-2 0  9991
2 18539 101.5659 122.0351 0031416  26.0233 131.4368 12.54256389597608
Epoch: 2026-07-27T05:17Z
TLE epoch observation values (Epoch: 2026-07-27T05:17:09.981Z)
Latitude
21.80873°
Longitude
-77.48931°
Altitude
1,465.425 km
Speed
7.124 km/s
True Right ascension
20h 26m 50s
True Declination
21° 42' 04"
Sunlit
Object was in full shadow at epoch
Visualization orbit readout
Latitude
Unknown
Longitude
Unknown
Altitude
Unknown
Speed
Unknown
Apparent Right ascension
Unknown
Apparent Declination
Unknown
Sunlit
N/A
Visualization observer readout
Local Sidereal Time
10:32:02
Azimuth
Unknown
Elevation
Unknown
Doppler factor
Unknown
Orbital elements
Apogee altitude
1,468.847 km
Perigee altitude
1,419.698 km
Semi-major axis
7,822.409 km
Eccentricity
0.00314
Inclination
101.5659°
RAAN
122.0351°
Arg. of periapsis
26.0233°
True anomaly
131.70599°
Mean anomaly
131.4368°
Eccentric anomaly
131.57146°
Mean motion
3.13713 °/min
Orbital period
114.75 mins
BSTAR
0.0018227
Loading maneuver chart data...
Computing Atmospheric mass density...

Documentation

Showing up to 5 results
|